Weather Roundup
Issued by NWS Springfield, MO

Home | Current Version | Previous Version | Text Only | Print | Product List | Glossary On
Versions: 1 2 3 4 5 6 7 8 9 10 11 12 13 14 15 16 17 18 19 20 21 22 23 24 25 26 27 28 29 30 31 32 33 34 35 36 37 38 39 40 41 42 43 44 45 46 47 48 49 50
000
NZUS99 KSGF 270857
HRRSGF

HOURLY WEATHER
NATIONAL WEATHER SERVICE SPRINGFIELD MO
400 AM CDT SAT MAY 27 2017

......SGF CWA......

CITY           SKY/WX    TMP DP  RH WIND       PRES   REMARKS
SPRINGFIELD    PTCLDY    70  69  97 SE5       29.81F
JOPLIN         PTCLDY    73  70  90 SE6       29.79F
WEST PLAINS    CLOUDY    71  69  93 CALM      29.85F FOG
ROLLA          CLOUDY    63  63 100 E5        29.84R FOG

......SURROUNDING SGF CWA......

CITY           SKY/WX    TMP DP  RH WIND       PRES   REMARKS
CHANUTE        CLEAR     67  64  90 E5        29.79F
PARSONS        CLEAR     67  65  93 CALM      29.78F
COFFEYVILLE    CLEAR     66  66 100 NE7       29.75F
EMPORIA        CLEAR     61  61 100 CALM      29.79F
HARRISON AR    LGT RAIN  69  65  86 CALM      29.86F

......KANSAS AND MISSOURI......

CITY           SKY/WX    TMP DP  RH WIND       PRES   REMARKS
KANSAS CTY INT CLEAR     70  64  81 E8        29.83F
SEDALIA        PTCLDY    66  66 100 E5        29.85S FOG
ST JOSEPH      CLOUDY    63  62  97 CALM      29.84S
ST LOUIS       PTCLDY    72  66  81 NE3       29.85S
SPIRIT OF STL  PTCLDY    68  68 100 CALM      29.83S FOG
WICHITA        CLEAR     68  64  87 SE10      29.75F
TOPEKA         CLOUDY    65  64  97 CALM      29.81F
OLATHE         CLEAR     65  64  97 E5        29.83S

......TENNESSEE......

CITY           SKY/WX    TMP DP  RH WIND       PRES   REMARKS
MEMPHIS        NOT AVBL
NASHVILLE      MOCLDY    73  61  65 S7        29.91F

......ARKANSAS.......

CITY           SKY/WX    TMP DP  RH WIND       PRES   REMARKS
FAYETTEVILLE   CLOUDY    76  73  91 S6        29.82S
FT SMITH       PTCLDY    78  70  76 SW5       29.79F
LITTLE ROCK    PTCLDY    75  74  96 SW10      29.85S

......OKLAHOMA.......

CITY           SKY/WX    TMP DP  RH WIND       PRES   REMARKS
TULSA          CLEAR     72  70  93 S5        29.74S
PONCA CITY     CLEAR     68  63  84 SE6       29.76S
MCALESTER      CLEAR     78  73  84 VRB7      29.80F
OKLAHOMA CITY  CLEAR     70  68  93 SE8       29.77F

......IOWA............

CITY           SKY/WX    TMP DP  RH WIND       PRES   REMARKS
DES MOINES     NOT AVBL
QUAD CITIES    CLOUDY    59  56  89 E5        29.86R FOG

......ILLINOIS........

CITY           SKY/WX    TMP DP  RH WIND       PRES   REMARKS
QUINCY         CLEAR     61  59  93 E3        29.87S
CHICAGO        CLOUDY    53  50  89 N8        29.86S



USA.gov is the U.S. government's official web portal to all federal, state and local government web resources and services.